Es liegt ein Kommunikationsproblem . Gehen Sie direkt zur Website Meteoalarm : www.meteoalarm.eu und ├╝berpr├╝fen Sie die Wetterwarnungen..

Webcam Vorhersage DWD Regenradar Wetterlage NRW Blitze Wind GFS-Modell
webcam


Kleve -D├╝ffelward more information Kleve -D├╝ffelward


Goch more information Goch


Thunder radar more information blitzortung!


Weitere Templates dieser Seite und andere Webseiten:

Meteotemplate

Awekas - Template

weather34 - Template

Wetter aus Willich

Hubert Reyers' Wetter


te
World Weather Websites
 

METAR-Meldungen aus der Umgebung

   
EHDL - Nijmegen
Aktualisierung: 14-08-2022 22:55
Bew├Âlkt  
Bew├Âlkt  
   Wind: Windstille
Wind: Windstille
Temperatur: 21°C
Taupunkt: 14°C
Luftfeuchte: 64%
Luftdruck: 1005 hPa
Bew├Âlkt: Bew├Âlkt
Sichtbarkeit: More than 10 km
Bew├Âlkung: Bew├Âlkt 28000 ft
EHDL 142055Z AUTO 00000KT 9999 OVC280 21/14 Q1005 BLU
EHDL - Arnhem
Aktualisierung: 14-08-2022 22:55
Bew├Âlkt  
Bew├Âlkt  
   Wind: Windstille
Wind: Windstille
Temperatur: 21°C
Taupunkt: 14°C
Luftfeuchte: 64%
Luftdruck: 1005 hPa
Bew├Âlkt: Bew├Âlkt
Sichtbarkeit: More than 10 km
Bew├Âlkung: Bew├Âlkt 28000 ft
EHDL 142055Z AUTO 00000KT 9999 OVC280 21/14 Q1005 BLU
EHAM - Amsterdam
Aktualisierung: 14-08-2022 22:55
Klar  
Klar  
   Wind: ONO 11.1 km/h
Wind: ONO 11.1 km/h
Temperatur: 24°C
Taupunkt: 16°C
Luftfeuchte: 61%
Luftdruck: 1004 hPa
Sichtbarkeit: More than 10 km
Bew├Âlkung: Klar
EHAM 142055Z 06006KT CAVOK 24/16 Q1004 NOSIG
EHDL - Ede
Aktualisierung: 14-08-2022 22:55
Bew├Âlkt  
Bew├Âlkt  
   Wind: Windstille
Wind: Windstille
Temperatur: 21°C
Taupunkt: 14°C
Luftfeuchte: 64%
Luftdruck: 1005 hPa
Bew├Âlkt: Bew├Âlkt
Sichtbarkeit: More than 10 km
Bew├Âlkung: Bew├Âlkt 28000 ft
EHDL 142055Z AUTO 00000KT 9999 OVC280 21/14 Q1005 BLU
EHDL - Emmen
Aktualisierung: 14-08-2022 22:55
Bew├Âlkt  
Bew├Âlkt  
   Wind: Windstille
Wind: Windstille
Temperatur: 21°C
Taupunkt: 14°C
Luftfeuchte: 64%
Luftdruck: 1005 hPa
Bew├Âlkt: Bew├Âlkt
Sichtbarkeit: More than 10 km
Bew├Âlkung: Bew├Âlkt 28000 ft
EHDL 142055Z AUTO 00000KT 9999 OVC280 21/14 Q1005 BLU
EHAM - Den Haag
Aktualisierung: 14-08-2022 22:55
Klar  
Klar  
   Wind: ONO 11.1 km/h
Wind: ONO 11.1 km/h
Temperatur: 24°C
Taupunkt: 16°C
Luftfeuchte: 61%
Luftdruck: 1004 hPa
Sichtbarkeit: More than 10 km
Bew├Âlkung: Klar
EHAM 142055Z 06006KT CAVOK 24/16 Q1004 NOSIG
EHAM - Apeldoorn
Aktualisierung: 14-08-2022 22:55
Klar  
Klar  
   Wind: ONO 11.1 km/h
Wind: ONO 11.1 km/h
Temperatur: 24°C
Taupunkt: 16°C
Luftfeuchte: 61%
Luftdruck: 1004 hPa
Sichtbarkeit: More than 10 km
Bew├Âlkung: Klar
EHAM 142055Z 06006KT CAVOK 24/16 Q1004 NOSIG
EHAM - Leeuwarden
Aktualisierung: 14-08-2022 22:55
Klar  
Klar  
   Wind: ONO 11.1 km/h
Wind: ONO 11.1 km/h
Temperatur: 24°C
Taupunkt: 16°C
Luftfeuchte: 61%
Luftdruck: 1004 hPa
Sichtbarkeit: More than 10 km
Bew├Âlkung: Klar
EHAM 142055Z 06006KT CAVOK 24/16 Q1004 NOSIG
TNCC - Willemstad
Aktualisierung: 14-08-2022 23:00
leicht bew├Âlkt  
leicht bew├Âlkt  
   Wind: Osten 14.8 km/h
Wind: Osten 14.8 km/h
Temperatur: 29°C
Hitzeindex: 33°C
Taupunkt: 24°C
Luftfeuchte: 74%
Luftdruck: 1011 hPa
Bew├Âlkt: leicht bew├Âlkt
Sichtbarkeit: More than 10 km
Bew├Âlkung: leicht bew├Âlkt 2200 ft
TNCC 142100Z 09008KT 9999 FEW022 29/24 Q1011 NOSIG=
EHEH - Eindhoven
Aktualisierung: 14-08-2022 22:55
Bew├Âlkt  
Bew├Âlkt  
   Wind: NNO 7.4 km/h
Wind: NNO 7.4 km/h
Temperatur: 26°C
Taupunkt: 15°C
Luftfeuchte: 51%
Luftdruck: 1004 hPa
Bew├Âlkt: Bew├Âlkt
Sichtbarkeit: More than 10 km
Bew├Âlkung: Bew├Âlkt 8900 ft
EHEH 142055Z AUTO 02004KT 9999 OVC089 26/15 Q1004 BLU NOSIG
EHAM - Middelburg
Aktualisierung: 14-08-2022 22:55
Klar  
Klar  
   Wind: ONO 11.1 km/h
Wind: ONO 11.1 km/h
Temperatur: 24°C
Taupunkt: 16°C
Luftfeuchte: 61%
Luftdruck: 1004 hPa
Sichtbarkeit: More than 10 km
Bew├Âlkung: Klar
EHAM 142055Z 06006KT CAVOK 24/16 Q1004 NOSIG
EHAM - Delfzijl
Aktualisierung: 14-08-2022 22:55
Klar  
Klar  
   Wind: ONO 11.1 km/h
Wind: ONO 11.1 km/h
Temperatur: 24°C
Taupunkt: 16°C
Luftfeuchte: 61%
Luftdruck: 1004 hPa
Sichtbarkeit: More than 10 km
Bew├Âlkung: Klar
EHAM 142055Z 06006KT CAVOK 24/16 Q1004 NOSIG

Script entwickelt von  Saratoga-weather.org Angepasst f├╝r das Template von  Weerstation Leuven

Sie finden Wetter-Infos dieser Station auch auf:

UK Metoffice

European Weather Network

WeatherCloud

Weather Underground

AWEKAS

Neuwetter

Wettersektor

Von uns verwendete Ausr├╝stung:

Wetterstation
Davis VP2

Wetterprogramm
Meteobridge

WetterComputer
Computer

Anbieter
My provider

Davis VP2

Meteobridge

Computer

My provider